Flag for Netherlands Weather past 2 weeks in Tilburg, Netherlands

Now
55 °F

Cloudy.


Feels Like: 51 °F
Forecast: 50 / 53 °F
Wind: 17 mph from West

Location: Gilze-Rijen

Current Time: Dec 22, 2014 at 4:01:43 PM

Latest Report: Dec 22, 2014 at 3:25 PM


Visibility: N/A

Pressure: 30.01 "Hg

Humidity: 77%

Dew point: 48 °F

Location of TilburgLocation

Historic Weather in Tilburg — Graph

°F

Tilburg temperature yesterday

Maximum temperature yesterday: 48 °F (at 3:55 PM)
Minimum temperature yesterday: 39 °F (at 2:25 AM)
Average temperature yesterday: 44 °F

Past Weeks' High & Low Weather Summary

 TemperatureHumidityPressure
High55 °F (Dec 18, 1:55 PM)100% (Dec 7, 2:25 PM)30.39 "Hg (Dec 7, 2:25 PM)
Low28 °F (Dec 9, 7:55 AM)62% (Dec 10, 3:55 PM)29.36 "Hg (Dec 12, 10:25 AM)
Average43 °F90%29.93 "Hg
* Reported Dec 7 2:25 PM — Dec 22 2:55 PM, Tilburg, Weather by CustomWeather, © 2014

Note: Actual official high and low records may vary slightly from our data, if they occured in-between our weather recording intervals... More about our weather records

Advertising

Tilburg weather history for previous 24 hours

 ConditionsComfort  
Time TempWeatherWind HumidityBarometerVisibility
2:55 PM
Dec 22
55 °FBroken clouds.16 mph82%30.01 "HgN/A
2:25 PM54 °FMostly cloudy.15 mph88%30.04 "HgN/A
1:55 PM54 °FMostly cloudy.16 mph88%30.04 "HgN/A
1:25 PM52 °FMostly cloudy.15 mph94%30.04 "HgN/A
12:55 PM50 °FFog.16 mph100%30.04 "Hg3 mi
12:25 PM50 °FFog.14 mph100%30.04 "Hg2 mi
11:55 AM50 °FFog.17 mph94%30.04 "Hg2 mi
11:25 AM50 °FMostly cloudy.18 mph94%30.07 "HgN/A
11:03 AM50 °FFog.16 mph94%30.07 "Hg4 mi
10:55 AM50 °FFog.16 mph94%30.07 "Hg4 mi
10:25 AM50 °FDrizzle. Mostly cloudy.15 mph94%30.07 "Hg1 mi
10:03 AM50 °FFog.16 mph94%30.07 "Hg2 mi
9:55 AM50 °FFog.15 mph94%30.07 "Hg4 mi
9:25 AM50 °FMostly cloudy.16 mph94%30.07 "HgN/A
8:55 AM50 °FOvercast.16 mph94%30.07 "HgN/A
8:25 AM50 °FFog.16 mph94%30.07 "Hg6 mi
7:55 AM50 °FFog.18 mph94%30.07 "Hg4 mi
7:25 AM50 °FFog.16 mph94%30.07 "Hg4 mi
6:55 AM50 °FFog.17 mph94%30.07 "Hg4 mi
6:25 AM50 °FFog.17 mph94%30.07 "Hg2 mi
5:55 AM50 °FFog.16 mph94%30.07 "Hg5 mi
5:25 AM50 °FOvercast.15 mph88%30.09 "HgN/A
4:55 AM50 °FOvercast.16 mph88%30.09 "HgN/A
4:25 AM50 °FOvercast.15 mph88%30.09 "HgN/A
3:55 AM50 °FOvercast.17 mph88%30.09 "HgN/A
3:25 AM48 °FLow clouds.18 mph94%30.09 "HgN/A
2:55 AM48 °FMostly cloudy.16 mph94%30.12 "HgN/A
2:25 AM48 °FMostly cloudy.16 mph94%30.12 "HgN/A
1:55 AM48 °FMostly cloudy.16 mph94%30.12 "HgN/A
1:25 AM48 °FFog.16 mph94%30.12 "Hg4 mi
12:55 AM48 °FFog.17 mph94%30.15 "Hg5 mi
12:25 AM48 °FFog.15 mph94%30.15 "Hg2 mi
11:55 PM
Dec 21
48 °FFog.15 mph94%30.18 "Hg5 mi
11:25 PM48 °FOvercast.16 mph87%30.15 "HgN/A
10:25 PM48 °FOvercast.15 mph87%30.18 "HgN/A
9:55 PM48 °FMostly cloudy.15 mph87%30.18 "HgN/A
9:25 PM48 °FMostly cloudy.13 mph87%30.18 "HgN/A
8:55 PM48 °FPassing clouds.13 mph94%30.21 "HgN/A
8:25 PM48 °FOvercast.13 mph94%30.21 "HgN/A
7:55 PM48 °FPassing clouds.14 mph94%30.21 "HgN/A
7:25 PM48 °FFog.10 mph94%30.21 "Hg4 mi
6:55 PM48 °FPassing clouds.14 mph94%30.21 "HgN/A
6:25 PM48 °FMostly cloudy.13 mph87%30.24 "HgN/A
5:55 PM46 °FMostly cloudy.10 mph93%30.24 "HgN/A
5:25 PM46 °FFog.15 mph93%30.24 "Hg4 mi
4:55 PM48 °FMostly cloudy.13 mph82%30.24 "HgN/A
4:25 PM48 °FPartly sunny.13 mph82%30.24 "HgN/A
Weather by CustomWeather, © 2014

See weather overviewHow to use our weather pages